Location: Newark
(44.3681°N, 100.3364°W)
Time: 09:16:58
(UTC+00:00)

Vanguard 1 - Pass Details

Date: 29 February 2020
Orbit: 649 x 3833 km, 34.2° (Epoch: 07 April)

Event Time Altitude Azimuth Distance (km) Brightness Sun altitude
Rises 17:16:10 0° 274° (W) 7,882 14.4 33.6°
Reaches altitude 10° 17:22:08 10° 270° (W) 6,642 14.1 34.1°
Maximum altitude 17:40:50 48° 205° (SSW) 3,131 13.7 35.5°
Drops below altitude 10° 17:51:51 10° 135° (SE) 4,059 14.3 36.2°
Sets 17:54:33 0° 129° (SE) 4,716 14.3 36.4°
